W1LH-10 Weather Reports


time (UTC)temp
C
wind
direction
speed
KPH
gust
KPH
rain 1hr
cm
rain 24hr
cm
rain mn
cm
humidity
%
barometer
mb
20260507153348 10 78 4.8 0.0 0.00 0.00 0.69 78 1003.3
20260507150332 9 53 8.0 0.0 0.00 0.00 0.69 80 1003.5
20260507143326 8 36 6.4 0.0 0.00 0.00 0.69 86 1003.6
20260507140330 7 329 4.8 0.0 0.00 0.00 0.69 64 1003.8
20260507133320 6 280 6.4 0.0 0.00 0.00 0.69 58 1003.9
20260507130316 6 291 8.0 0.0 0.00 0.00 0.69 59 1003.8
20260507123325 6 18 6.4 0.0 0.00 0.00 0.69 59 1004.2
20260507120328 5 355 4.8 0.0 0.00 0.00 0.69 59 1004.4
20260507113330 5 23 9.7 0.0 0.00 0.00 0.69 59 1003.6
20260507110329 5 338 8.0 0.0 0.00 0.00 0.69 59 1003.5
20260507103324 5 18 6.4 0.0 0.00 0.00 0.69 59 1003.6
20260507100329 5 9 8.0 0.0 0.00 0.00 0.69 59 1003.7
20260507093331 6 5 9.7 0.0 0.00 0.00 0.69 58 1002.6
20260507090327 6 321 9.7 0.0 0.00 0.00 0.69 58 1002.8
20260507083322 6 339 8.0 0.0 0.00 0.00 0.66 57 1002.6
20260507080338 7 5 9.7 0.0 0.00 0.00 0.66 57 1002.2
20260507073347 7 329 11.3 0.0 0.00 0.00 0.64 57 1001.7
20260507070325 7 14 11.3 0.0 0.00 0.00 0.58 57 1002.7
20260507063323 7 325 12.9 0.0 0.00 0.00 0.36 56 1002.1
20260507060328 8 48 11.3 0.0 0.00 0.00 0.30 55 1002.0
20260507053320 10 265 17.7 0.0 0.00 0.00 0.25 54 1001.8
20260507050332 9 220 20.9 0.0 0.00 0.00 0.18 54 1001.8
20260507043328 9 244 17.7 0.0 0.00 0.00 0.05 54 1001.9
20260507040329 10 222 14.5 0.0 0.00 0.00 1.32 54 1002.0
20260507033334 10 227 14.5 0.0 0.00 0.00 1.24 54 1002.4
20260507030330 10 209 11.3 0.0 0.00 0.00 1.17 53 1002.7
20260507023328 10 175 12.9 0.0 0.00 0.00 1.02 53 1003.8
20260507020327 10 175 17.7 0.0 0.00 0.00 0.89 53 1004.6
20260507013316 10 252 12.9 0.0 0.00 0.00 0.66 53 1005.0
20260507010315 10 235 16.1 0.0 0.00 0.00 0.48 53 1005.7
20260507003326 10 240 14.5 0.0 0.00 0.00 0.36 54 1005.7
20260507000329 10 211 11.3 0.0 0.00 0.00 0.30 55 1005.5
20260506233325 10 166 8.0 0.0 0.00 0.00 0.25 56 1005.8
20260506230337 11 181 11.3 0.0 0.00 0.00 0.23 59 1006.5
20260506223334 11 236 11.3 0.0 0.00 0.00 0.15 63 1006.3
20260506220328 11 219 16.1 0.0 0.00 0.00 0.10 67 1006.8
20260506213317 11 215 16.1 0.0 0.00 0.00 0.05 75 1006.8
20260506210316 12 196 12.9 0.0 0.00 0.00 0.03 82 1008.0
20260506203350 12 275 17.7 0.0 0.00 0.00 0.03 84 1007.8
20260506200327 12 248 11.3 0.0 0.00 0.00 0.03 84 1007.8
20260506193334 13 217 12.9 0.0 0.00 0.00 0.03 85 1008.0
20260506190326 13 238 9.7 0.0 0.00 0.00 0.03 85 1007.9
20260506183324 12 221 11.3 0.0 0.00 0.00 0.03 83 1008.4
20260506180321 12 246 16.1 0.0 0.00 0.00 0.03 83 1008.8
20260506173327 12 208 14.5 0.0 0.00 0.00 0.03 82 1008.6
20260506170323 12 213 12.9 0.0 0.00 0.00 0.03 82 1009.2
20260506163318 12 234 8.0 0.0 0.00 0.00 0.03 84 1009.2
20260506160333 12 224 8.0 0.0 0.00 0.00 0.03 85 1009.2